Change the Weather History Date:

Monday, October 29, 2012

  Actual Average Record
Temperature  
Mean Temperature 40 °F -  
Max Temperature 49 °F 53 °F 73 °F (2004)
Min Temperature 30 °F 31 °F 15 °F (1988)
Degree Days  
Heating Degree Days 26    
Moisture  
Dew Point 30 °F    
Average Humidity 72    
Maximum Humidity 85    
Minimum Humidity 52    
Precipitation  
Precipitation 0.00 in - - ()
Sea Level Pressure  
Sea Level Pressure 30.24 in    
Wind  
Wind Speed 8 mph (ESE)    
Max Wind Speed 16 mph    
Max Gust Speed 23 mph    
Visibility 10 miles    
Events      
Averages and records for this station are not official NWS values.
T = Trace of Precipitation, MM = Missing Value Source: NWS Daily Summary

Daily Weather History Graph

Daily Weather History Graph

Search for Another Location

Airport or City:

Trip Planner

Search our weather history database for the weather conditions in past years. The results will help you decide how hot, cold, wet, or windy it might be!

Date:

Astronomy

Oct. 29, 2012 Rise Set
Actual Time 7:52 AM CDT 6:09 PM CDT
Civil Twilight 7:21 AM CDT 6:39 PM CDT
Nautical Twilight 6:47 AM CDT 7:14 PM CDT
Astronomical Twilight 6:13 AM CDT 7:48 PM CDT
Moon 5:59 PM CDT (10/29) 7:44 AM CDT (10/29)
Length of Visible Light 11h 17m
Length of Day
10h 17m
Full, 100% of the Moon is Illuminated
Oct 29
Full
Oct 29
Full
Nov 6
Last Quarter
Nov 13
New
Nov 20
First Quarter

Hourly Weather History & Observations

Time (CDT) Temp. Windchill Dew Point Humidity Pressure Visibility Wind Dir Wind Speed Gust Speed Precip Events Conditions
12:09 AM 35.2 °F 30.3 °F 29.7 °F 80% 30.27 in 10.0 mi SE 5.8 mph - N/A   Mostly Cloudy
12:29 AM 34.0 °F 28.8 °F 29.1 °F 82% 30.26 in 10.0 mi SE 5.8 mph - N/A   Scattered Clouds
12:48 AM 34.0 °F 28.8 °F 29.3 °F 83% 30.26 in 10.0 mi SE 5.8 mph - N/A   Scattered Clouds
1:09 AM 34.0 °F 28.8 °F 28.9 °F 82% 30.26 in 10.0 mi SE 5.8 mph - N/A   Mostly Cloudy
1:29 AM 34.0 °F 28.8 °F 29.3 °F 83% 30.26 in 10.0 mi SE 5.8 mph - N/A   Scattered Clouds
1:49 AM 34.0 °F 28.8 °F 30.0 °F 85% 30.26 in 10.0 mi SE 5.8 mph - N/A   Scattered Clouds
2:08 AM 34.0 °F 29.8 °F 29.3 °F 83% 30.26 in 10.0 mi SE 4.6 mph - N/A   Clear
2:28 AM 31.8 °F 26.2 °F 27.3 °F 83% 30.28 in 10.0 mi ESE 5.8 mph - N/A   Clear
2:49 AM 31.8 °F 27.3 °F 27.3 °F 83% 30.28 in 10.0 mi ESE 4.6 mph - N/A   Clear
3:08 AM 30.6 °F 25.8 °F 26.4 °F 85% 30.27 in 10.0 mi SE 4.6 mph - N/A   Clear
3:29 AM 30.6 °F 24.7 °F 26.4 °F 85% 30.27 in 10.0 mi ESE 5.8 mph - N/A   Clear
3:49 AM 30.6 °F 25.8 °F 26.1 °F 83% 30.26 in 10.0 mi ESE 4.6 mph - N/A   Clear
4:08 AM 30.9 °F 25.2 °F 26.2 °F 83% 30.26 in 10.0 mi ESE 5.8 mph - N/A   Clear
4:29 AM 31.8 °F 25.4 °F 26.6 °F 81% 30.26 in 10.0 mi ESE 6.9 mph - N/A   Clear
4:49 AM 31.8 °F 26.2 °F 26.6 °F 81% 30.26 in 10.0 mi ESE 5.8 mph - N/A   Scattered Clouds
5:08 AM 31.8 °F 26.2 °F 26.4 °F 80% 30.26 in 10.0 mi ESE 5.8 mph - N/A   Mostly Cloudy
5:49 AM 34.0 °F 27.2 °F 28.6 °F 81% 30.25 in 10.0 mi ESE 8.1 mph - N/A   Scattered Clouds
6:08 AM 34.0 °F 26.6 °F 28.0 °F 79% 30.25 in 10.0 mi ESE 9.2 mph - N/A   Scattered Clouds
6:48 AM 34.0 °F 27.2 °F 27.1 °F 76% 30.25 in 10.0 mi SE 8.1 mph - N/A   Overcast
7:09 AM 34.0 °F 28.0 °F 27.0 °F 75% 30.25 in 10.0 mi SE 6.9 mph - N/A   Mostly Cloudy
7:29 AM 34.9 °F 27.7 °F 27.3 °F 74% 30.25 in 10.0 mi SE 9.2 mph - N/A   Mostly Cloudy
7:49 AM 35.2 °F 28.1 °F 27.5 °F 73% 30.25 in 10.0 mi SE 9.2 mph - N/A   Overcast
8:09 AM 35.2 °F 28.8 °F 27.5 °F 73% 30.26 in 10.0 mi SE 8.1 mph - N/A   Overcast
8:29 AM 35.6 °F 28.6 °F 27.9 °F 73% 30.26 in 10.0 mi SE 9.2 mph - N/A   Overcast
8:49 AM 36.5 °F 29.2 °F 27.7 °F 70% 30.25 in 10.0 mi SE 10.4 mph - N/A   Overcast
9:09 AM 36.5 °F 28.7 °F 27.3 °F 69% 30.25 in 10.0 mi SE 11.5 mph - N/A   Overcast
9:28 AM 36.5 °F 29.2 °F 27.7 °F 70% 30.25 in 10.0 mi SE 10.4 mph - N/A   Overcast
9:48 AM 36.5 °F 29.2 °F 27.5 °F 70% 30.25 in 10.0 mi SE 10.4 mph - N/A   Overcast
10:09 AM 39.2 °F 33.0 °F 29.3 °F 68% 30.26 in 10.0 mi SE 9.2 mph - N/A   Overcast
10:28 AM 39.2 °F 32.0 °F 29.3 °F 68% 30.26 in 10.0 mi SE 11.5 mph - N/A   Overcast
10:48 AM 39.2 °F 31.6 °F 29.1 °F 67% 30.25 in 10.0 mi ESE 12.7 mph 17.3 mph N/A   Overcast
11:08 AM 40.3 °F 33.0 °F 29.8 °F 66% 30.26 in 10.0 mi SE 12.7 mph 17.3 mph N/A   Overcast
11:29 AM 41.5 °F 35.4 °F 30.6 °F 65% 30.27 in 10.0 mi SE 10.4 mph - N/A   Overcast
11:36 AM 41.5 °F 35.0 °F 30.7 °F 65% 30.27 in 10.0 mi SE 11.5 mph - N/A   Overcast
12:10 PM 42.8 °F 36.6 °F 30.2 °F 61% 30.27 in 10.0 mi SSE 11.5 mph 18.4 mph N/A   Overcast
12:30 PM 42.8 °F 37.0 °F 30.2 °F 61% 30.26 in 10.0 mi SE 10.4 mph 18.4 mph N/A   Overcast
12:50 PM 46.4 °F 41.5 °F 32.0 °F 57% 30.25 in 10.0 mi SE 10.4 mph - N/A   Overcast
1:10 PM 44.6 °F 38.4 °F 32.0 °F 61% 30.25 in 10.0 mi SSE 12.7 mph - N/A   Overcast
1:30 PM 46.4 °F 41.1 °F 33.8 °F 62% 30.24 in 10.0 mi SE 11.5 mph 17.3 mph N/A   Overcast
1:50 PM 46.4 °F 40.7 °F 32.0 °F 57% 30.24 in 10.0 mi SE 12.7 mph 17.3 mph N/A   Overcast
2:10 PM 46.4 °F 41.1 °F 32.0 °F 57% 30.24 in 10.0 mi SSE 11.5 mph 19.6 mph N/A   Overcast
2:30 PM 46.4 °F 39.8 °F 32.0 °F 57% 30.23 in 10.0 mi SE 16.1 mph - N/A   Overcast
2:50 PM 46.4 °F 40.4 °F 32.0 °F 57% 30.22 in 10.0 mi SE 13.8 mph - N/A   Overcast
3:00 PM 47.8 °F - 32.9 °F 56% 30.22 in 10.0 mi SE 13.8 mph - N/A   Overcast
3:09 PM 49.1 °F - 33.6 °F 55% 30.22 in 10.0 mi SE 13.8 mph - N/A   Overcast
3:29 PM 49.1 °F - 34.3 °F 57% 30.23 in 10.0 mi ESE 13.8 mph - N/A   Overcast
3:49 PM 49.1 °F - 33.3 °F 54% 30.23 in 10.0 mi ESE 15.0 mph - N/A   Overcast
4:09 PM 49.1 °F - 32.4 °F 53% 30.22 in 10.0 mi ESE 13.8 mph 23.0 mph N/A   Mostly Cloudy
4:28 PM 49.1 °F - 32.0 °F 52% 30.22 in 10.0 mi SE 15.0 mph - N/A   Scattered Clouds
4:49 PM 49.1 °F - 32.2 °F 52% 30.21 in 10.0 mi ESE 11.5 mph - N/A   Clear
5:09 PM 46.9 °F - 32.2 °F 57% 30.21 in 10.0 mi ESE 12.7 mph - N/A   Clear
5:29 PM 46.6 °F - 32.4 °F 58% 30.21 in 10.0 mi ESE 12.7 mph - N/A   Clear
5:48 PM 43.7 °F 37.7 °F 31.3 °F 62% 30.21 in 10.0 mi ESE 11.5 mph - N/A   Clear
6:09 PM 41.9 °F 36.3 °F 31.1 °F 66% 30.21 in 10.0 mi ESE 9.2 mph - N/A   Clear
6:27 PM 41.4 °F 35.7 °F 31.8 °F 69% 30.22 in 10.0 mi ESE 9.2 mph - N/A   Clear
6:49 PM 39.2 °F 34.2 °F 31.1 °F 73% 30.23 in 10.0 mi ESE 6.9 mph - N/A   Clear
7:09 PM 39.2 °F 34.2 °F 31.8 °F 75% 30.24 in 10.0 mi ESE 6.9 mph - N/A   Clear
7:28 PM 37.6 °F 35.1 °F 31.1 °F 77% 30.24 in 10.0 mi East 3.5 mph - N/A   Clear
7:48 PM 36.7 °F 32.9 °F 30.4 °F 78% 30.24 in 10.0 mi East 4.6 mph - N/A   Clear
8:09 PM 36.5 °F 32.7 °F 30.9 °F 80% 30.23 in 10.0 mi East 4.6 mph - N/A   Clear
8:29 PM 36.3 °F 30.1 °F 31.1 °F 81% 30.22 in 10.0 mi East 8.1 mph - N/A   Clear
8:49 PM 36.5 °F 31.0 °F 30.7 °F 80% 30.22 in 10.0 mi East 6.9 mph - N/A   Clear
9:09 PM 36.5 °F 31.0 °F 31.1 °F 81% 30.23 in 10.0 mi East 6.9 mph - N/A   Clear
9:28 PM 36.5 °F 31.0 °F 31.1 °F 81% 30.23 in 10.0 mi East 6.9 mph - N/A   Clear
9:49 PM 36.0 °F 30.3 °F 31.3 °F 83% 30.23 in 10.0 mi East 6.9 mph - N/A   Clear
10:08 PM 35.8 °F 30.1 °F 31.1 °F 83% 30.23 in 10.0 mi East 6.9 mph - N/A   Clear
10:29 PM 35.2 °F 29.5 °F 30.9 °F 84% 30.22 in 10.0 mi East 6.9 mph - N/A   Clear
10:49 PM 35.1 °F 28.6 °F 30.6 °F 84% 30.22 in 10.0 mi East 8.1 mph - N/A   Clear
11:09 PM 34.0 °F 28.0 °F 29.8 °F 85% 30.22 in 10.0 mi East 6.9 mph - N/A   Clear
11:29 PM 34.0 °F 28.0 °F 29.8 °F 85% 30.21 in 10.0 mi East 6.9 mph - N/A   Clear
11:49 PM 34.0 °F 28.0 °F 30.0 °F 85% 30.21 in 10.0 mi East 6.9 mph - N/A   Clear